GW0207 Weather Reports


Display with metric or nautical units.
time (UTC)temp
F
wind
direction
speed
MPH
gust
MPH
rain 1hr
in
rain 24hr
in
rain mn
in
humidity
%
barometer
mb
20260505152604 76 24 0.0 2.0 0.00 0.00 0.00 56 1016.2
20260505152104 75 42 0.0 4.0 0.00 0.00 0.00 56 1016.2
20260505151603 75 299 0.0 5.0 0.00 0.00 0.00 57 1016.2
20260505151103 74 231 0.0 5.0 0.00 0.00 0.00 57 1016.4
20260505150603 74 47 0.0 2.0 0.00 0.00 0.00 56 1016.4
20260505150104 74 45 0.0 3.0 0.00 0.00 0.00 57 1016.3
20260505140603 71 32 0.0 2.0 0.00 0.00 0.00 64 1016.3
20260505125034 64 29 0.0 1.0 0.00 0.00 0.00 76 1016.4
20260505124754 63 57 0.0 0.0 0.00 0.00 0.00 77 1016.4
20260505124032 62 32 0.0 0.0 0.00 0.00 0.00 78 1016.4
20260505123531 61 15 0.0 0.0 0.00 0.00 0.00 79 1016.5
20260505123030 60 32 0.0 0.0 0.00 0.00 0.00 81 1016.5
20260505122530 59 19 0.0 0.0 0.00 0.00 0.00 82 1016.6
20260505122250 59 57 0.0 0.0 0.00 0.00 0.00 82 1016.5
20260505121530 58 39 0.0 0.0 0.00 0.00 0.00 83 1016.5
20260505121028 58 51 0.0 0.0 0.00 0.00 0.00 84 1016.4
20260505120530 57 79 0.0 0.0 0.00 0.00 0.00 84 1016.3
20260505120029 57 207 0.0 0.0 0.00 0.00 0.00 86 1016.3
20260505115528 56 107 0.0 0.0 0.00 0.00 0.00 86 1016.3
20260505115029 56 115 0.0 0.0 0.00 0.00 0.00 87 1016.3
20260505115010 55 100 0.0 0.0 0.00 0.00 0.00 87 1016.3
20260505114032 55 147 0.0 0.0 0.00 0.00 0.00 88 1016.3
20260505113531 55 145 0.0 0.0 0.00 0.00 0.00 88 1016.2
20260505113031 54 145 0.0 0.0 0.00 0.00 0.00 88 1016.2
20260505112530 54 153 0.0 0.0 0.00 0.00 0.00 88 1016.2
20260505112255 54 152 0.0 0.0 0.00 0.00 0.00 88 1016.1
20260505111529 53 153 0.0 0.0 0.00 0.00 0.00 88 1015.9
20260505111028 53 153 0.0 0.0 0.00 0.00 0.00 89 1015.9
20260505111005 53 153 0.0 0.0 0.00 0.00 0.00 89 1015.8
20260505102029 53 161 0.0 0.0 0.00 0.00 0.00 87 1015.4
20260505101529 53 160 0.0 0.0 0.00 0.00 0.00 87 1015.3
20260505101029 53 154 0.0 0.0 0.00 0.00 0.00 86 1015.4
20260505100744 53 154 0.0 0.0 0.00 0.00 0.00 86 1015.3
20260505100025 53 154 0.0 0.0 0.00 0.00 0.00 85 1015.2
20260505095527 53 154 0.0 0.0 0.00 0.00 0.00 85 1015.1
20260505095023 53 154 0.0 0.0 0.00 0.00 0.00 85 1015.1
20260505094520 54 154 0.0 0.0 0.00 0.00 0.00 85 1015.1
20260505094242 54 154 0.0 0.0 0.00 0.00 0.00 85 1015.0
20260505093517 54 154 0.0 0.0 0.00 0.00 0.00 84 1015.0
20260505093015 54 154 0.0 0.0 0.00 0.00 0.00 84 1015.0
20260505092515 54 116 0.0 0.0 0.00 0.00 0.00 84 1014.9
20260505092011 55 116 0.0 0.0 0.00 0.00 0.00 84 1014.9
20260505091731 55 116 0.0 0.0 0.00 0.00 0.00 84 1014.9
20260505091009 55 116 0.0 0.0 0.00 0.00 0.00 83 1014.9
20260505090509 55 116 0.0 0.0 0.00 0.00 0.00 83 1014.9
20260505090008 55 116 0.0 0.0 0.00 0.00 0.00 82 1014.9
20260505085505 55 116 0.0 0.0 0.00 0.00 0.00 82 1014.9
20260505085005 56 115 0.0 0.0 0.00 0.00 0.00 81 1014.9
20260505084727 56 115 0.0 0.0 0.00 0.00 0.00 81 1014.8
20260505084225 56 115 0.0 0.0 0.00 0.00 0.00 81 1014.8
20260505083503 56 115 0.0 0.0 0.00 0.00 0.00 81 1014.8
20260505083005 56 115 0.0 0.0 0.00 0.00 0.00 81 1014.8
20260505082503 56 177 0.0 0.0 0.00 0.00 0.00 81 1014.8
20260505082003 56 177 0.0 0.0 0.00 0.00 0.00 81 1014.7
20260505081504 56 177 0.0 0.0 0.00 0.00 0.00 80 1014.7
20260505081003 56 102 0.0 0.0 0.00 0.00 0.00 80 1014.7
20260505080504 57 102 0.0 0.0 0.00 0.00 0.00 80 1014.6
20260505080004 57 102 0.0 0.0 0.00 0.00 0.00 80 1014.7
20260505075503 57 130 0.0 0.0 0.00 0.00 0.00 80 1014.7
20260505075224 57 230 0.0 0.0 0.00 0.00 0.00 80 1014.5
20260505074501 57 230 0.0 0.0 0.00 0.00 0.00 79 1014.5
20260505074001 57 230 0.0 0.0 0.00 0.00 0.00 79 1014.5
20260505073721 57 248 0.0 0.0 0.00 0.00 0.00 79 1014.5
20260505073001 58 248 0.0 0.0 0.00 0.00 0.00 78 1014.5
20260505072500 58 147 0.0 0.0 0.00 0.00 0.00 78 1014.4
20260505072222 58 146 0.0 0.0 0.00 0.00 0.00 78 1014.4
20260505071722 58 152 0.0 0.0 0.00 0.00 0.00 77 1014.4
20260505071000 58 152 0.0 0.0 0.00 0.00 0.00 77 1014.4
20260505070501 58 157 0.0 0.0 0.00 0.00 0.00 77 1014.4
20260505070231 59 157 0.0 0.0 0.00 0.00 0.00 76 1014.4
20260505065501 59 157 0.0 0.0 0.00 0.00 0.00 76 1014.4
20260505065001 59 247 0.0 0.0 0.00 0.00 0.00 76 1014.4
20260505064501 59 247 0.0 0.0 0.00 0.00 0.00 75 1014.5
20260505064225 59 248 0.0 0.0 0.00 0.00 0.00 75 1014.4
20260505063504 60 100 0.0 0.0 0.00 0.00 0.00 75 1014.3
20260505063005 60 111 0.0 0.0 0.00 0.00 0.00 74 1014.3
20260505062503 60 113 0.0 1.0 0.00 0.00 0.00 74 1014.4
20260505062002 60 240 0.0 1.0 0.00 0.00 0.00 74 1014.4
20260505061504 60 124 0.0 1.0 0.00 0.00 0.00 73 1014.4
20260505061004 61 45 0.0 0.0 0.00 0.00 0.00 73 1014.4
20260505060503 61 45 0.0 0.0 0.00 0.00 0.00 73 1014.4
20260505060004 61 42 0.0 1.0 0.00 0.00 0.00 73 1014.4
20260505055503 61 50 0.0 1.0 0.00 0.00 0.00 72 1014.4
20260505055003 61 60 0.0 1.0 0.00 0.00 0.00 72 1014.4
20260505054504 61 223 0.0 1.0 0.00 0.00 0.00 72 1014.3
20260505054003 62 49 0.0 1.0 0.00 0.00 0.00 72 1014.4
20260505053503 62 115 0.0 4.0 0.00 0.00 0.00 72 1014.5
20260505053004 62 67 0.0 4.0 0.00 0.00 0.00 71 1014.5
20260505052725 62 105 0.0 1.0 0.00 0.00 0.00 71 1014.5
20260505052004 62 7 0.0 2.0 0.00 0.00 0.00 71 1014.5
20260505051721 62 112 0.0 2.0 0.00 0.00 0.00 71 1014.6
20260505051005 62 112 0.0 1.0 0.00 0.00 0.00 71 1014.5
20260505050503 62 245 0.0 1.0 0.00 0.00 0.00 71 1014.5
20260505050222 62 275 0.0 1.0 0.00 0.00 0.00 70 1014.5
20260505041456 63 107 0.0 0.0 0.00 0.00 0.00 69 1014.4
20260505040953 64 235 0.0 2.0 0.00 0.00 0.00 68 1014.4
20260505040450 64 86 0.0 2.0 0.00 0.00 0.00 68 1014.5
20260505040212 64 123 0.0 2.0 0.00 0.00 0.00 68 1014.4
20260505035446 64 55 0.0 2.0 0.00 0.00 0.00 68 1014.3
20260505034938 64 197 0.0 1.0 0.00 0.00 0.00 68 1014.4
20260505034435 65 159 0.0 1.0 0.00 0.00 0.00 67 1014.4
20260505033935 65 102 0.0 1.0 0.00 0.00 0.00 67 1014.3
20260505033435 65 177 0.0 3.0 0.00 0.00 0.00 67 1014.3
20260505032933 65 138 0.0 3.0 0.00 0.00 0.00 67 1014.3
20260505032433 65 83 0.0 2.0 0.00 0.00 0.00 67 1014.4
20260505032421 65 79 0.0 2.0 0.00 0.00 0.00 67 1014.4
20260505031433 65 138 0.0 4.0 0.00 0.00 0.00 66 1014.4
20260505030933 66 42 0.0 4.0 0.00 0.00 0.00 66 1014.3
20260505030432 66 81 0.0 1.0 0.00 0.00 0.00 66 1014.3
20260505025931 66 156 0.0 2.0 0.00 0.00 0.00 65 1014.3
20260505025432 66 159 0.0 2.0 0.00 0.00 0.00 65 1014.2
20260505024931 67 231 0.0 2.0 0.00 0.00 0.00 64 1014.2
20260505024430 67 57 0.0 2.0 0.00 0.00 0.00 64 1014.2
20260505023931 67 38 0.0 2.0 0.00 0.00 0.00 63 1014.2
20260505023431 67 69 0.0 2.0 0.00 0.00 0.00 62 1014.2
20260505022933 67 65 0.0 2.0 0.00 0.00 0.00 62 1014.2
20260505022431 67 12 0.0 2.0 0.00 0.00 0.00 60 1014.1
20260505021932 67 64 0.0 4.0 0.00 0.00 0.00 59 1014.1
20260505021431 67 221 0.0 4.0 0.00 0.00 0.00 58 1014.0
20260505020931 67 15 0.0 4.0 0.00 0.00 0.00 55 1014.0
20260505020431 67 38 0.0 1.0 0.00 0.00 0.00 54 1013.9
20260505015931 68 179 0.0 1.0 0.00 0.00 0.00 53 1013.8
20260505015431 67 166 0.0 1.0 0.00 0.00 0.00 54 1013.7
20260505014931 67 114 0.0 0.0 0.00 0.00 0.00 54 1013.7
20260505014431 67 52 0.0 0.0 0.00 0.00 0.00 54 1013.5
20260505013931 67 52 0.0 0.0 0.00 0.00 0.00 54 1013.5
20260505013649 67 96 0.0 0.0 0.00 0.00 0.00 54 1013.5
20260505012931 67 91 0.0 0.0 0.00 0.00 0.00 54 1013.4
20260505012431 67 55 0.0 0.0 0.00 0.00 0.00 55 1013.4
20260505011931 67 98 0.0 0.0 0.00 0.00 0.00 56 1013.3
20260505011433 66 51 0.0 0.0 0.00 0.00 0.00 55 1013.3
20260505010932 67 49 0.0 0.0 0.00 0.00 0.00 55 1013.2
20260505010431 67 49 0.0 0.0 0.00 0.00 0.00 54 1013.1
20260505005930 67 49 0.0 0.0 0.00 0.00 0.00 54 1013.1
20260505005430 67 49 0.0 0.0 0.00 0.00 0.00 54 1013.1
20260505005207 68 49 0.0 0.0 0.00 0.00 0.00 53 1013.0
20260505004431 68 49 0.0 0.0 0.00 0.00 0.00 52 1012.9
20260505003931 69 49 0.0 0.0 0.00 0.00 0.00 51 1012.9
20260505003657 70 49 0.0 0.0 0.00 0.00 0.00 50 1012.9
20260505003414 70 49 0.0 0.0 0.00 0.00 0.00 48 1012.7
20260505002431 71 49 0.0 0.0 0.00 0.00 0.00 48 1012.8
20260505001931 71 148 0.0 0.0 0.00 0.00 0.00 47 1012.8
20260505001431 72 145 0.0 0.0 0.00 0.00 0.00 45 1012.7
20260505000932 72 176 0.0 2.0 0.00 0.00 0.00 45 1012.6
20260505000431 72 223 0.0 2.0 0.00 0.00 0.00 44 1012.5
20260504235932 72 258 0.0 1.0 0.00 0.00 0.00 44 1012.6
20260504235431 72 108 0.0 1.0 0.00 0.00 0.00 44 1012.5
20260504234930 72 192 0.0 0.0 0.00 0.00 0.00 45 1012.4
20260504234432 73 278 0.0 1.0 0.00 0.00 0.00 42 1012.4
20260504233931 74 277 0.0 1.0 0.00 0.00 0.00 42 1012.3
20260504233425 74 74 0.0 0.0 0.00 0.00 0.00 41 1012.2
20260504232920 75 79 0.0 0.0 0.00 0.00 0.00 40 1012.1
20260504232413 75 240 0.0 0.0 0.00 0.00 0.00 40 1012.1
20260504231907 76 108 0.0 0.0 0.00 0.00 0.00 40 1012.0
20260504231405 76 104 0.0 1.0 0.00 0.00 0.00 40 1012.1
20260504230906 76 53 0.0 1.0 0.00 0.00 0.00 40 1012.1
20260504230403 77 57 0.0 3.0 0.00 0.00 0.00 37 1012.0
20260504225903 77 252 0.0 3.0 0.00 0.00 0.00 37 1012.1
20260504225622 77 53 0.0 2.0 0.00 0.00 0.00 38 1012.1
20260504225122 77 52 0.0 2.0 0.00 0.00 0.00 37 1012.1
20260504224401 77 58 0.0 2.0 0.00 0.00 0.00 37 1012.1
20260504223901 78 50 0.0 2.0 0.00 0.00 0.00 37 1012.1
20260504223401 78 52 0.0 3.0 0.00 0.00 0.00 38 1012.1
20260504222902 78 60 0.0 3.0 0.00 0.00 0.00 37 1012.1
20260504222400 78 92 0.0 1.0 0.00 0.00 0.00 40 1012.1
20260504222122 78 38 0.0 1.0 0.00 0.00 0.00 39 1012.1
20260504221401 78 45 0.0 1.0 0.00 0.00 0.00 37 1012.1
20260504220901 78 60 0.0 1.0 0.00 0.00 0.00 37 1012.1
20260504220401 78 72 0.0 1.0 0.00 0.00 0.00 38 1012.0
20260504220124 78 260 0.0 1.0 0.00 0.00 0.00 38 1012.1
20260504215401 78 62 0.0 2.0 0.00 0.00 0.00 37 1012.1
20260504214903 78 48 0.0 3.0 0.00 0.00 0.00 37 1012.1
20260504214400 78 42 0.0 3.0 0.00 0.00 0.00 36 1012.1
20260504213901 79 259 0.0 2.0 0.00 0.00 0.00 38 1012.2
20260504213401 79 149 0.0 2.0 0.00 0.00 0.00 37 1012.2
20260504212901 79 23 0.0 2.0 0.00 0.00 0.00 37 1012.2
20260504212400 79 47 0.0 2.0 0.00 0.00 0.00 37 1012.2
20260504211901 79 37 0.0 2.0 0.00 0.00 0.00 36 1012.2
20260504211401 79 48 0.0 1.0 0.00 0.00 0.00 37 1012.2
20260504210901 79 17 0.0 1.0 0.00 0.00 0.00 37 1012.2
20260504210623 79 121 0.0 3.0 0.00 0.00 0.00 37 1012.2
20260504205901 79 29 0.0 3.0 0.00 0.00 0.00 35 1012.3
20260504205401 80 38 0.0 3.0 0.00 0.00 0.00 37 1012.4
20260504204901 80 26 0.0 2.0 0.00 0.00 0.00 35 1012.4
20260504204840 80 50 0.0 3.0 0.00 0.00 0.00 37 1012.4
20260504203900 80 33 0.0 4.0 0.00 0.00 0.00 35 1012.4
20260504203401 80 43 0.0 4.0 0.00 0.00 0.00 35 1012.6
20260504202901 80 50 0.0 4.0 0.00 0.00 0.00 36 1012.5
20260504202401 80 117 0.0 3.0 0.00 0.00 0.00 36 1012.6
20260504201902 80 47 0.0 3.0 0.00 0.00 0.00 35 1012.7
20260504201401 81 217 0.0 3.0 0.00 0.00 0.00 36 1012.7
20260504200902 80 254 0.0 3.0 0.00 0.00 0.00 37 1012.7
20260504200629 80 297 0.0 2.0 0.00 0.00 0.00 38 1012.7
20260504195903 80 64 0.0 2.0 0.00 0.00 0.00 37 1012.7
20260504195403 79 53 0.0 1.0 0.00 0.00 0.00 37 1012.8
20260504195130 79 307 0.0 5.0 0.00 0.00 0.00 38 1012.9
20260504194403 79 46 0.0 5.0 0.00 0.00 0.00 37 1013.0
20260504194124 79 91 0.0 4.0 0.00 0.00 0.00 36 1013.2
20260504193850 79 16 0.0 4.0 0.00 0.00 0.00 39 1013.3
20260504192903 79 12 0.0 3.0 0.00 0.00 0.00 37 1013.3
20260504192403 79 87 0.0 3.0 0.00 0.00 0.00 39 1013.3
20260504191903 78 96 0.0 1.0 0.00 0.00 0.00 39 1013.2
20260504191403 78 140 0.0 3.0 0.00 0.00 0.00 38 1013.4
20260504190903 78 34 0.0 3.0 0.00 0.00 0.00 36 1013.4
20260504190403 78 5 0.0 2.0 0.00 0.00 0.00 38 1013.5
20260504185901 78 66 0.0 2.0 0.00 0.00 0.00 37 1013.6
20260504185401 78 49 1.0 4.0 0.00 0.00 0.00 38 1013.7
20260504185120 78 20 1.0 4.0 0.00 0.00 0.00 37 1013.8
20260504184400 78 43 0.0 4.0 0.00 0.00 0.00 38 1013.6
20260504183901 78 359 0.0 4.0 0.00 0.00 0.00 37 1013.7
20260504183627 78 60 0.0 4.0 0.00 0.00 0.00 37 1013.7
20260504182901 77 40 0.0 4.0 0.00 0.00 0.00 37 1013.8
20260504182401 77 250 0.0 4.0 0.00 0.00 0.00 38 1014.0
20260504181900 77 251 0.0 4.0 0.00 0.00 0.00 38 1014.1
20260504181404 77 43 0.0 4.0 0.00 0.00 0.00 36 1014.2
20260504180903 77 50 0.0 1.0 0.00 0.00 0.00 38 1014.1
20260504180403 77 358 0.0 2.0 0.00 0.00 0.00 39 1014.2
20260504175903 77 64 0.0 2.0 0.00 0.00 0.00 39 1014.2
20260504175404 77 53 0.0 3.0 0.00 0.00 0.00 38 1014.2
20260504175129 77 152 0.0 3.0 0.00 0.00 0.00 38 1014.2
20260504174403 76 93 0.0 3.0 0.00 0.00 0.00 38 1014.3
20260504174125 76 12 0.0 4.0 0.00 0.00 0.00 38 1014.4
20260504173403 76 46 0.0 4.0 0.00 0.00 0.00 38 1014.5
20260504172905 76 299 0.0 2.0 0.00 0.00 0.00 40 1014.4
20260504172627 76 21 0.0 2.0 0.00 0.00 0.00 40 1014.6
20260504172125 76 332 0.0 2.0 0.00 0.00 0.00 40 1014.7
20260504171622 76 348 0.0 2.0 0.00 0.00 0.00 40 1014.7
20260504170903 76 35 0.0 1.0 0.00 0.00 0.00 42 1014.8
20260504170624 75 30 0.0 1.0 0.00 0.00 0.00 45 1014.9
20260504160341 73 36 0.0 1.0 0.00 0.00 0.00 45 1015.6